Weather History for MZBZ - November, 2014

Change the Weather History Date:

Friday, November 7, 2014

  Actual Average Record
Temperature  
Mean Temperature 76 °F -  
Max Temperature 84 °F 84 °F 89 °F (2006)
Min Temperature 68 °F 71 °F 60 °F (2010)
Cooling Degree Days 11    
Growing Degree Days 26 (Base 50)    
Moisture  
Dew Point 70 °F    
Average Humidity 76    
Maximum Humidity 100    
Minimum Humidity 43    
Precipitation  
Precipitation 0.00 in 0.24 in - ()
Sea Level Pressure  
Sea Level Pressure 29.97 in    
Wind  
Wind Speed 3 mph ()    
Max Wind Speed 7 mph    
Max Gust Speed -    
Visibility 8.5 miles    
Events      
Averages and records for this station are not official NWS values.
T = Trace of Precipitation, MM = Missing Value Source: Averaged Metar Reports

Daily Weather History Graph

Daily Weather History Graph

Search for Another Location

Airport or City:

Trip Planner

Search our weather history database for the weather conditions in past years. The results will help you decide how hot, cold, wet, or windy it might be!

Date:

Astronomy

Nov. 07, 2014 Rise Set
Actual Time 5:54 AM CST 5:19 PM CST
Civil Twilight 5:31 AM CST 5:41 PM CST
Nautical Twilight 5:05 AM CST 6:07 PM CST
Astronomical Twilight 4:40 AM CST 6:33 PM CST
Moon 6:14 PM CST (11/7) 6:29 AM CST (11/7)
Length of Visible Light 12h 09m
Length of Day
11h 24m
Full, 99% of the Moon is Illuminated
Nov 7
Full
Nov 14
Last Quarter
Nov 22
New
Nov 29
First Quarter
Dec 6
Full

Hourly Weather History & Observations

Time (CST) Temp. Heat Index Dew Point Humidity Pressure Visibility Wind Dir Wind Speed Gust Speed Precip Events Conditions
12:00 AM 73 °F - 72 °F 94% 30.00 in 12 mi Calm Calm - -   Scattered Clouds
3:00 AM 71 °F - 70 °F 97% 29.97 in 12 mi Calm Calm - -   Scattered Clouds
5:00 AM 69.8 °F - 69.8 °F 100% 29.98 in 6.2 mi Calm Calm - N/A   Partly Cloudy
6:00 AM 70 °F - 70 °F 98% 30.00 in 12 mi Calm Calm - -   Scattered Clouds
6:00 AM 69.8 °F - 69.8 °F 100% 29.99 in 6.2 mi Calm Calm - N/A   Partly Cloudy
7:00 AM 71.6 °F - 69.8 °F 94% 30.01 in 6.2 mi West 4.6 mph - N/A   Partly Cloudy
8:00 AM 75.2 °F - 71.6 °F 89% 30.03 in 6.2 mi WNW 6.9 mph - N/A   Partly Cloudy
9:00 AM 79 °F - 72 °F 73% 30.04 in 12 mi NNW 5.8 mph - -   Scattered Clouds
9:00 AM 78.8 °F - 71.6 °F 78% 30.03 in 6.2 mi NNW 5.8 mph - N/A   Partly Cloudy
10:00 AM 80.6 °F 84.6 °F 71.6 °F 74% 30.03 in 6.2 mi North 5.8 mph - N/A   Scattered Clouds
11:00 AM 82.4 °F 86.3 °F 69.8 °F 66% 30.00 in 6.2 mi NNE 5.8 mph - N/A   Scattered Clouds
12:00 PM 83 °F - 70 °F 57% 29.99 in 14 mi NE 6.9 mph - -   Partly Cloudy
12:00 PM 82.4 °F 86.3 °F 69.8 °F 66% 29.98 in 6.2 mi NE 6.9 mph - N/A   Scattered Clouds
1:00 PM 82.4 °F 84.6 °F 66.2 °F 58% 29.95 in 6.2 mi ENE 6.9 mph - N/A   Partly Cloudy
2:00 PM 84.2 °F 87.3 °F 68.0 °F 58% 29.92 in 6.2 mi ENE 6.9 mph - N/A   Partly Cloudy
3:00 PM 84 °F - 65 °F 43% 29.92 in 14 mi ENE 6.9 mph - -   Scattered Clouds
3:00 PM 84.2 °F 85.6 °F 64.4 °F 51% 29.91 in 6.2 mi ENE 6.9 mph - N/A   Partly Cloudy
4:00 PM 82.4 °F 85.4 °F 68.0 °F 62% 29.91 in 6.2 mi East 5.8 mph - N/A   Partly Cloudy
5:00 PM 80.6 °F 83.9 °F 69.8 °F 70% 29.92 in 6.2 mi East 4.6 mph - N/A   Partly Cloudy
6:00 PM 78 °F - 71 °F 74% 29.94 in 12 mi Calm Calm - -   Scattered Clouds
6:00 PM 77.0 °F - 71.6 °F 83% 29.93 in 6.2 mi Calm Calm - N/A   Partly Cloudy
9:00 PM 73 °F - 71 °F 92% 29.99 in 12 mi Calm Calm - -   Scattered Clouds